Location: Meanaryar
(48.4161°N, 4.7315°W)
Time: 08:20:11
(UTC+00:00)

Cosmos 1092 Rocket - Pass Details

Date: 20 January 2021
Orbit: 954 x 995 km, 83.0° (Epoch: 02 March)

Event Time Altitude Azimuth Distance (km) Brightness Sun altitude
Rises 06:48:57 0° 348° (NNW) 3,645 6.7 -11.8°
Reaches altitude 10° 06:51:29 10° 344° (NNW) 2,695 6.0 -11.4°
Maximum altitude 06:57:30 59° 267° (W) 1,095 4.0 -10.5°
Drops below altitude 10° 07:03:31 10° 189° (S) 2,688 6.5 -9.5°
Sets 07:06:02 0° 186° (S) 3,635 7.2 -9.1°
